User: anonymous   Login
Location: Auckland
(36.8670°S, 174.7670°E)
Time: 14:32:20
(UTC+12:00)
Language:

S-56A Canister/Altair - Orbit

View from above orbital plane
View from above orbital plane
View from above satellite
View from above satellite

Ground track
Ground track

The orbit data is extracted from the following two-line orbital elements,

1    82U 61004B   19202.80453679  .00000054  00000-0  70656-4 0  9994
2    82  38.8666 346.4014 1175591 282.9038  64.3123 12.26043599767103
Epoch (UTC): 21 July 2019 19:18:31
Eccentricity: 0.1175591
inclination: 38.8666°
perigee height: 632 km
apogee height: 2500 km
right ascension of ascending node: 346.4014°
argument of perigee: 282.9038°
revolutions per day: 12.26043599
mean anomaly at epoch: 64.3123°
orbit number at epoch: 76710

The dashed part of the orbit path shows where the satellite is in the earth's shadow,  

DLR